{"data":{"norad_id":64322,"intl_designator":"2025-124F","name":"STARLINK-11747 [DTC]","alt_names":[],"object_type":"PAYLOAD","status":"ACTIVE","operator":null,"country":"US","launch_date":"2025-06-10","launch_site_code":"AFETR","launch_vehicle":null,"mission":null,"orbit_class":"UNKNOWN","rcs_meters":null,"size_class":null,"mass_kg":null,"dimensions":null,"purposes":["comms"],"wikipedia_slug":null,"has_3d_model":false,"image_url":null,"decayed_at":null,"tle_current":{"epoch":"2026-09-20T03:03:16.010496Z","epoch_age_seconds":169813,"freshness":"FRESH","line1":"1 64322U 25124F   26263.12726864  .00154997  00000+0  11867-2 0  9995","line2":"2 64322  43.0000 297.2743 0001559 269.2115  90.8574 15.70885904 73411","mean_motion":15.70885904,"eccentricity":0.0001559,"inclination_deg":43,"raan_deg":297.2743,"arg_perigee_deg":269.2115,"mean_anomaly_deg":90.8574,"bstar":0.0011867,"rev_number":7341,"period_min":91.668019703613,"perigee_km":355.31395385599,"apogee_km":357.41377122493,"semimajor_km":6734.5008625405,"source":"CELESTRAK","updated_at":"2026-09-21T09:00:35.311568Z"}}}